Погода в Вардане

Россия / Краснодарский край     43°44′21″N   39°32′46″E
темп.,
°C
ветер,
м/с
пор.,
м/с
влажн.,
%
обл.,
%
осадки,
мм/ч
давл.,
гПа
погр.,
м
8 мая, сб
сб800:00+13в23778 0.0 101853
03:00+13в237258 0.0 101759
06:00+14всв3366100 0.0 101657
09:00+18ююв2359100 0.0 1015169
12:00+18ююв3657100 0.0 1014429
15:00+19ю1356100 0.0 1013286
18:00+20юв116595 0.0 101111
21:00+17св2263100 0.0 101218
9 мая, вс
вс900:00+15зюз1174100 0.0 101311
03:00+14ю0185100 0.3 101322
06:00+13ююв31093100 4.5 1012706
09:00+14ююв4699100 32.0 1012456
12:00+10ссз7988100 16.4 1016469
15:00+10ссз6883100 19.6 1020540
18:00+12сз67661 0.1 1021797
21:00+9ссз4572100 0.1 1024347
10 мая, пн
пн1000:00+8с34742 0.0 1024257
03:00+8с33720 0.0 1024177
06:00+8ссв33650 0.0 1025125
09:00+13зсз344628 0.0 10241295
12:00+14зсз7647100 0.1 10241583
15:00+13зсз644736 0.3 10241760
18:00+12зсз335693 0.1 1024993
21:00+9св2268100 0.3 102478
11 мая, вт
вт1100:00+9в3470100 0.1 1023133
03:00+9вюв2475100 1.2 1022344
06:00+8в4585100 1.5 1022339
09:00+10ююв4673100 2.6 10221088
12:00+12ююв6765100 0.5 10221525
15:00+13ю5654100 0.6 10211268
18:00+12ююз1155100 0.0 1020609
21:00+11с1154100 0.0 1019251
12 мая, ср
ср1200:00+11ссв225185 0.0 1017111
03:00+9св225435 0.0 101778
06:00+9ссв22556 0.0 101693
09:00+14з21420 0.0 1015372
12:00+15з32460 0.0 1015481
15:00+16з31470 0.0 1014425
18:00+15сз34602 0.0 1014178
21:00+13с33710 0.0 1014111